Vicksburg, LA

8:58 AM CDT on April 25, 2017 (GMT -0500)
Vicksburg Tallulah Regional

Weather History for KTVR - March, 2013

Change the Weather History Date:

Sunday, March 10, 2013

  Actual Average Record
Temperature  
Mean Temperature 63 °F 56 °F  
Max Temperature 75 °F 67 °F 84 °F (2009)
Min Temperature 51 °F 45 °F 17 °F (1996)
Degree Days  
Heating Degree Days 2 10  
Month to date heating degree days 158 109  
Since 1 July heating degree days 1928 2085  
Cooling Degree Days 0 1  
Month to date cooling degree days 0 7  
Year to date cooling degree days 18 16  
Growing Degree Days 13 (Base 50)    
Moisture  
Dew Point 55 °F    
Average Humidity 79    
Maximum Humidity 100    
Minimum Humidity 58    
Precipitation  
Precipitation 1.57 in 0.16 in 4.29 in (2016)
Month to date precipitation 1.58 1.85  
Year to date precipitation 24.41 12.19  
Sea Level Pressure  
Sea Level Pressure 29.90 in    
Wind  
Wind Speed 9 mph (WSW)    
Max Wind Speed 26 mph    
Max Gust Speed 38 mph    
Visibility 6 miles    
Events Rain , Thunderstorm    
T = Trace of Precipitation, MM = Missing Value Source: NWS Daily Summary

Daily Weather History Graph

Daily Weather History Graph

Search for Another Location

Airport or City:

Trip Planner

Search our weather history database for the weather conditions in past years. The results will help you decide how hot, cold, wet, or windy it might be!

Date:

Astronomy

Mar. 10, 2013 Rise Set
Actual Time 7:20 AM CDT 7:08 PM CDT
Civil Twilight 6:55 AM CDT 7:33 PM CDT
Nautical Twilight 6:27 AM CDT 8:01 PM CDT
Astronomical Twilight 5:58 AM CDT 8:30 PM CDT
Moon 6:18 AM CDT (3/10) 6:17 PM CDT (3/10)
Length of Visible Light 12h 37m
Length of Day
11h 48m
Waning Crescent, 2% of the Moon is Illuminated
Mar 10
Waning Crescent
Mar 11
New
Mar 19
First Quarter
Mar 27
Full
Apr 2
Last Quarter

Hourly Weather History & Observations

Time (CDT) Temp. Dew Point Humidity Pressure Visibility Wind Dir Wind Speed Gust Speed Precip Events Conditions
12:53 AM 63.0 °F 55.0 °F 75% 29.98 in 10.0 mi SSE 10.4 mph - N/A   Overcast
1:15 AM 62.6 °F 55.4 °F 77% 29.95 in 10.0 mi SE 9.2 mph - N/A   Overcast
1:53 AM 62.1 °F 55.9 °F 80% 29.98 in 10.0 mi SSE 5.8 mph - N/A   Overcast
3:53 AM 62.1 °F 55.9 °F 80% 29.94 in 10.0 mi SE 9.2 mph - N/A   Mostly Cloudy
4:53 AM 62.1 °F 57.0 °F 84% 29.90 in 10.0 mi SE 11.5 mph - N/A   Clear
5:53 AM 62.1 °F 57.9 °F 86% 29.90 in 10.0 mi SSE 12.7 mph - N/A   Partly Cloudy
6:37 AM 62.6 °F 57.2 °F 82% 29.88 in 10.0 mi SSE 10.4 mph - N/A   Mostly Cloudy
7:53 AM 64.0 °F 59.0 °F 84% 29.91 in 9.0 mi SSE 8.1 mph - N/A   Overcast
8:53 AM 64.9 °F 60.1 °F 84% 29.93 in 10.0 mi South 8.1 mph - N/A   Overcast
9:53 AM 68.0 °F 61.0 °F 78% 29.92 in 10.0 mi South 15.0 mph - N/A   Mostly Cloudy
10:36 AM 69.8 °F 60.8 °F 73% 29.90 in 10.0 mi South 17.3 mph 27.6 mph N/A   Mostly Cloudy
10:44 AM 69.8 °F 60.8 °F 73% 29.90 in 10.0 mi South 17.3 mph 25.3 mph N/A   Scattered Clouds
10:53 AM 70.0 °F 60.1 °F 71% 29.91 in 10.0 mi South 19.6 mph 27.6 mph N/A   Mostly Cloudy
11:53 AM 72.0 °F 60.1 °F 66% 29.88 in 10.0 mi South 19.6 mph 33.4 mph N/A   Scattered Clouds
12:53 PM 73.9 °F 59.0 °F 59% 29.86 in 10.0 mi South 21.9 mph 32.2 mph 0.00 in   Overcast
1:53 PM 75.0 °F 59.0 °F 57% 29.84 in 10.0 mi South 17.3 mph 27.6 mph N/A   Overcast
2:53 PM 70.0 °F 59.0 °F 68% 29.87 in 10.0 mi WNW 24.2 mph 38.0 mph N/A   Overcast
3:04 PM 55.4 °F 53.6 °F 94% 29.86 in 1.8 mi NW 17.3 mph 33.4 mph 0.09 in Rain Heavy Rain
3:08 PM 55.4 °F 53.6 °F 94% 29.87 in 1.2 mi NW 9.2 mph 33.4 mph 0.12 in Rain Heavy Rain
3:15 PM 55.4 °F 53.6 °F 94% 29.87 in 2.5 mi NW 11.5 mph 23.0 mph 0.15 in Rain Heavy Rain
3:23 PM 55.4 °F 53.6 °F 94% 29.86 in 4.0 mi NW 11.5 mph 21.9 mph 0.16 in Rain Light Rain
3:53 PM 55.9 °F 54.0 °F 93% 29.89 in 10.0 mi NW 11.5 mph 21.9 mph 0.16 in   Overcast
4:35 PM 57.2 °F 55.4 °F 94% 29.86 in 10.0 mi NNW 3.5 mph - 0.00 in Rain , Thunderstorm Light Rain
4:53 PM 55.9 °F 54.0 °F 93% 29.88 in 6.0 mi NW 3.5 mph - 0.02 in Rain , Thunderstorm Light Rain
4:57 PM 55.4 °F 53.6 °F 94% 29.87 in 5.0 mi NW 3.5 mph - 0.00 in Rain , Thunderstorm Thunderstorms and Rain
5:13 PM 55.4 °F 55.4 °F 100% 29.87 in 7.0 mi Calm Calm - 0.01 in Rain , Thunderstorm Light Rain
5:22 PM 55.4 °F 55.4 °F 100% 29.87 in 4.0 mi NW 5.8 mph - 0.03 in Rain Light Rain
5:34 PM 55.4 °F 55.4 °F 100% 29.86 in 1.8 mi North 3.5 mph - 0.09 in Rain Heavy Rain
5:47 PM 55.4 °F 55.4 °F 100% 29.86 in 3.0 mi Calm Calm - 0.14 in Rain Light Rain
5:53 PM 55.9 °F 55.0 °F 97% 29.88 in 8.0 mi Calm Calm - 0.14 in Rain Light Rain
6:08 PM 55.4 °F 55.4 °F 100% 29.87 in 1.2 mi Calm Calm - 0.07 in Rain Heavy Rain
6:14 PM 55.4 °F 55.4 °F 100% 29.86 in 0.8 mi Calm Calm - 0.16 in Rain Heavy Rain
6:22 PM 55.4 °F 55.4 °F 100% 29.88 in 0.8 mi South 4.6 mph - 0.22 in Rain , Thunderstorm Heavy Rain
6:27 PM 55.4 °F 55.4 °F 100% 29.89 in 2.0 mi South 5.8 mph - 0.26 in Rain , Thunderstorm Heavy Rain
6:32 PM 55.4 °F 55.4 °F 100% 29.90 in 1.8 mi Variable 3.5 mph - 0.30 in Rain , Thunderstorm Heavy Rain
6:41 PM 55.4 °F 55.4 °F 100% 29.87 in 1.8 mi Calm Calm - 0.34 in Rain , Thunderstorm Heavy Rain
6:44 PM 55.4 °F 55.4 °F 100% 29.86 in 2.5 mi Calm Calm - 0.35 in Rain Heavy Rain
6:53 PM 55.9 °F 55.0 °F 97% 29.89 in 6.0 mi Calm Calm - 0.36 in Rain Light Rain
7:09 PM 55.4 °F 55.4 °F 100% 29.87 in 2.5 mi Calm Calm - 0.03 in Rain Rain
7:16 PM 55.4 °F 55.4 °F 100% 29.88 in 6.0 mi Calm Calm - 0.04 in Rain Light Rain
7:38 PM 55.4 °F 55.4 °F 100% 29.89 in 2.5 mi WNW 3.5 mph - 0.12 in Rain Heavy Rain
7:46 PM 55.4 °F 55.4 °F 100% 29.90 in 2.5 mi West 3.5 mph - 0.15 in Rain Rain
7:53 PM 55.9 °F 55.0 °F 97% 29.92 in 2.5 mi Calm Calm - 0.17 in Rain Heavy Rain
7:56 PM 55.4 °F 55.4 °F 100% 29.90 in 3.0 mi NW 3.5 mph - 0.01 in Rain Heavy Rain
8:17 PM 53.6 °F 51.8 °F 94% 29.90 in 8.0 mi NW 6.9 mph - 0.03 in Rain Light Rain
8:32 PM 53.6 °F 51.8 °F 94% 29.89 in 3.0 mi NNW 3.5 mph - 0.07 in Rain Rain
8:53 PM 53.1 °F 52.0 °F 96% 29.93 in 5.0 mi WNW 3.5 mph - 0.10 in Rain Rain
9:16 PM 53.6 °F 51.8 °F 94% 29.92 in 10.0 mi Calm Calm - 0.02 in Rain Light Rain
9:53 PM 54.0 °F 53.1 °F 97% 29.93 in 5.0 mi NW 3.5 mph - 0.09 in Rain Rain
10:32 PM 53.6 °F 53.6 °F 100% 29.94 in 2.0 mi SW 3.5 mph - 0.09 in Rain Heavy Rain
10:39 PM 53.6 °F 53.6 °F 100% 29.93 in 1.8 mi West 4.6 mph - 0.13 in Rain Heavy Rain
10:50 PM 53.6 °F 53.6 °F 100% 29.93 in 2.0 mi WSW 3.5 mph - 0.19 in Rain Heavy Rain
10:53 PM 54.0 °F 53.1 °F 97% 29.95 in 2.0 mi Calm Calm - 0.20 in Rain Heavy Rain
11:07 PM 53.6 °F 53.6 °F 100% 29.92 in 4.0 mi Calm Calm - 0.03 in Rain Rain
11:53 PM 54.0 °F 53.1 °F 97% 29.94 in 2.5 mi Calm Calm - 0.16 in Rain Heavy Rain
12:01 AM 53.6 °F 53.6 °F 100% 29.93 in 4.0 mi West 3.5 mph - 0.01 in Rain Rain
12:18 AM 53.6 °F 53.6 °F 100% 29.93 in 2.0 mi Calm Calm - 0.06 in Rain Heavy Rain
12:28 AM 53.6 °F 53.6 °F 100% 29.95 in 5.0 mi WSW 5.8 mph - 0.08 in Rain Light Rain
12:39 AM 53.6 °F 53.6 °F 100% 29.94 in 2.5 mi West 6.9 mph - 0.12 in Rain Heavy Rain
12:50 AM 51.8 °F 48.2 °F 88% 29.95 in 4.0 mi NW 10.4 mph 24.2 mph 0.15 in Rain Rain
12:51 AM 52.0 °F 48.9 °F 89% 29.97 in 5.0 mi NW 10.4 mph 24.2 mph 0.15 in Rain Rain